www.pogodaiklimat.ru

Погода и климат >> Архив погоды >> Россия >> Костромская область >> Мантурово


ПОГОДА в Мантурово

  • Прогноз погоды в Мантурово
  • Монитор погоды в Мантурово

АРХИВ ПОГОДЫ в Мантурово

Время (UTC), дата Ветер
(напр.,м/с)
 
Видим.   Явления Облачность Т
(С)
Тd
(С)
f
(%)
Тe
(С)
Тes
(С)
Комфортность P
(гПа)
Po
(гПа)
Тmin
(С)
Tmax
(С)
R
(мм)
R24
(мм)
S
(см)
00 16.07 СЗ 1 н/о н/о +10.0 +8.5 90 +9 +9 1010.2 994.6
03 16.07 СЗ 1 н/о н/о +13.0 +9.5 79 +13 +13 1010.4 995.0 +10.0
06 16.07 З 1 н/о н/о +19.0 +11.2 61 +21 +21 комфорт 1010.9 995.8 +10.0
09 16.07 З 2 н/о н/о +20.9 +9.5 48 +23 +23 комфорт 1011.1 996.1
12 16.07 З 2 н/о н/о +22.8 +8.5 40 +24 +24 комфорт 1011.5 996.5
15 16.07 З 1 н/о н/о +23.1 +7.7 37 +24 +24 комфорт 1011.6 996.7 +23.6
18 16.07 штиль 0 н/о н/о +15.1 +11.2 78 +15 +15 1012.8 997.5
21 16.07 штиль 0 н/о н/о +11.5 +10.2 92 +11 +11 1013.5 997.9
00 17.07 штиль 0 н/о н/о +10.0 +8.8 92 +9 +9 1014.2 998.5
03 17.07 СВ 1 н/о н/о +14.3 +10.7 79 +15 +15 1014.0 998.6 +9.6
06 17.07 В 2 н/о н/о +21.5 +12.2 55 +24 +24 комфорт 1013.2 998.2 +9.6
09 17.07 ЮВ 2 н/о н/о +24.3 +11.8 46 +26 +26 жарко 1012.8 997.9
12 17.07 В 2 н/о н/о +24.6 +9.7 39 +25 +25 комфорт 1011.9 997.1
15 17.07 В 2 н/о н/о +22.9 +10.4 45 +25 +25 комфорт 1011.0 996.1 +25.5
18 17.07 СВ 1 н/о н/о +19.1 +11.5 61 +21 +21 комфорт 1011.2 996.1
21 17.07 СВ 2 н/о н/о +17.7 +11.7 68 +18 +18 1010.4 995.2
00 18.07 В 1 н/о н/о +16.1 +12.0 77 +17 +17 1010.0 994.8
03 18.07 В 1 н/о н/о +16.4 +11.5 73 +17 +17 1009.4 994.2 +15.8
06 18.07 В 2 н/о н/о +17.9 +12.0 68 +18 +18 1008.9 993.8 +15.8
09 18.07 В 3 н/о н/о +19.8 +13.2 66 +22 +22 комфорт 1008.6 993.6
12 18.07 В 2 н/о н/о +20.1 +14.7 71 +23 +23 комфорт 1008.5 993.5
15 18.07 В 2 н/о н/о +19.7 +14.5 72 +22 +22 комфорт 1008.5 993.4 +21.0
18 18.07 СВ 1 н/о н/о +17.6 +15.2 86 +19 +19 1008.4 993.3
21 18.07 В 1 н/о н/о +17.2 +14.8 86 +18 +18 1008.2 993.1
00 19.07 штиль 0 н/о н/о +16.5 +14.5 88 +16 +16 1007.9 992.8
03 19.07 ЮВ 1 н/о н/о +18.0 +14.7 81 +19 +19 1007.4 992.3 +15.5 0.2
06 19.07 штиль 0 н/о н/о +19.8 +15.4 76 +22 +22 комфорт 1007.4 992.4 +15.5
09 19.07 ЮЗ 1 н/о н/о +25.2 +13.7 49 +27 +27 жарко 1006.3 991.6
12 19.07 СВ 2 н/о н/о +23.2 +15.7 63 +28 +28 душно 1006.0 991.2
15 19.07 ЮЗ 2 н/о н/о +24.1 +11.0 44 +25 +25 комфорт 1006.0 991.3 +25.8 0.5
18 19.07 ЮЗ 1 н/о н/о +15.9 +12.0 78 +17 +17 1007.1 991.9
21 19.07 штиль 0 н/о н/о +14.2 +12.5 90 +14 +14 1007.6 992.3
00 20.07 штиль 0 н/о н/о +11.2 +10.2 94 +10 +10 1008.0 992.6
03 20.07 Ю 1 н/о н/о +14.8 +12.0 83 +15 +15 1007.9 992.6 +10.9
06 20.07 Ю 2 н/о н/о +19.8 +13.0 65 +22 +22 комфорт 1007.5 992.5 +10.9
09 20.07 ЮЗ 1 н/о н/о +15.6 +13.8 89 +16 +16 1008.2 993.0
12 20.07 ЮЗ 1 н/о н/о +20.1 +13.4 65 +23 +23 комфорт 1007.9 992.9
15 20.07 ЮЗ 1 н/о н/о +18.2 +14.2 77 +20 +20 1008.6 993.5 +21.8 5
18 20.07 ЮЗ 2 н/о н/о +14.9 +13.2 90 +15 +15 1009.4 994.1
21 20.07 ЮЗ 1 н/о н/о +12.3 +11.0 92 +12 +12 1009.6 994.1
00 21.07 штиль 0 н/о н/о +10.9 +9.8 93 +10 +10 1010.1 994.5
03 21.07 Ю 2 н/о н/о +12.7 +11.5 92 +12 +12 1009.9 994.5 +10.3
06 21.07 ЮЗ 2 н/о н/о +14.9 +13.5 91 +15 +15 1009.9 994.6 +10.3
09 21.07 З 1 н/о н/о +17.3 +14.0 81 +18 +18 1010.0 994.8
12 21.07 З 2 н/о н/о +18.9 +13.4 70 +20 +20 1010.3 995.2
15 21.07 З 1 н/о н/о +16.6 +14.5 87 +17 +17 1010.9 995.7 +20.0 1
18 21.07 З 2 н/о н/о +14.7 +13.2 91 +14 +14 1011.8 996.5
21 21.07 СЗ 2 н/о н/о +13.6 +12.0 90 +13 +13 1012.6 997.2
00 22.07 СЗ 1 н/о н/о +13.2 +11.5 89 +13 +13 1012.8 997.4

 

Местоположение метеостанции Мантурово (Костромская область, Россия): широта 58.33 долгота 44.78 высота над уровнем моря 58 м.

В архиве по умолчанию представлена погода в Мантурово за последнюю неделю. Архивные данные за месяц целиком и за предыдущие месяцы, начиная с января 2011 года, Вы можете получить, выбрав интересующий диапазон дат из раскрывающегося списка и нажав кнопку "Ввод!".


*Определитесь, кто Вы:
робот инопланетянин человек

Внимание! Время в таблицах - всемирное. Для получения местного времени необходимо прибавить поправку, которая равна 3 ч.

Смотрите также архив погоды в соседних городах и на ближайших метеорологических станциях:

Погода в Шарье (Костромская область, Россия) (44 км)
Погода в Кологриве (Костромская область, Россия) (61 км)
Погода в Макарьеве (Костромская область, Россия) (76 км)
Погода в Ветлуге (Нижегородская область, Россия) (79 км)
Погода в Пыщуге (Костромская область, Россия) (82 км)
Погода в Николо-Поломе (Костромская область, Россия) (82 км)
Погода в Чухломе (Костромская область, Россия) (131 км)
Погода в Шахунье (Нижегородская область, Россия) (132 км)
Погода в Вохме (Костромская область, Россия) (133 км)
Погода в Красных Баках (Нижегородская область, Россия) (135 км)

Пояснения к столбцам:

Ветер - указаны скорость ветра в м/с - средняя за 10 мин, порывы в срок и между сроками (в фигурных скобках) и направление, откуда дует ветер: С - северный, СВ - северо-восточный, В - восточный, ЮВ - юго-восточный, Ю - южный, ЮЗ - юго-западный, З - западный, СЗ - северо-западный.
Видимость - горизонтальная дальность видимости в метрах или километрах. При видимости от 1 до 10 км при отсутствии осадков обычно наблюдается дымка, при ухудшении видимости до 1 км и менее - туман. В сухую погоду видимость может ухудшаться дымом, пылью или мглою.
Явления - указаны атмосферные явления, наблюдавшиеся в срок или в последний час перед сроком; фигурными скобками обозначены явления, наблюдавшиеся между сроками (за 1-3 часа до срока); квадратными скобками обозначены град или гололедные отложения с указанием их диаметра в мм.
Облачность - указаны через наклонную черту общая и нижняя облачность в баллах и высота нижней границы облаков в метрах; квадратными скобками обозначены формы облаков: Ci - перистые, Cs - перисто-слоистые, Cc - перисто-кучевые, Ac - высококучевые, As - высокослоистые, Sc - слоисто-кучевые, Ns - слоисто-дождевые, Cu - кучевые, Cb - кучево-дождевые. Подробнее классификацию облаков см. в Атласе облаков (PDF).
T - Температура воздуха - температура, измеренная на высоте 2 м над землей.
Td - Температура точки росы - температура, при понижении до которой содержащийся в воздухе водяной пар достигнет насыщения.
f - Относительная влажность воздуха - влажноcть воздуха, измеренная на высоте 2 м над землей.
Te - Эффективная температура - температура, которую ощущает одетый по сезону человек в тени. Характеристика душности погоды. При расчете учитывается влияние влажности воздуха и скорости ветра на теплоощущения человека.
Tes - Эффективная температура на солнце - температура, которую ощущает человек, с поправкой на солнечный нагрев. Характеристика знойности погоды. Зависит от высоты солнца над горизонтом, облачности и скорости ветра. Ночью, в пасмурную погоду, а также при ветре 12 м/с и более поправка равна нулю.
P - Атмосферное давление - приведенное к уровню моря атмосферное давление.
Po - Атмосферное давление - измеренное на уровне метеостанции атмосферное давление.
Tmin - Минимальная температура - минимум температуры воздуха на высоте 2 м над землей.
Tmax - Максимальная температура - максимум температуры воздуха на высоте 2 м над землей.
R - Количество осадков - Количество выпавших осадков за период времени, мм. При наведении курсора мыши на число - период времени, за который выпало указанное количество осадков.
R24 - Количество осадков - Количество выпавших осадков за 24 часа, мм.
S - Снежный покров - Высота снежного покрова, см. При наведении курсора мыши на число - состояние снежного покрова и степень покрытия местности в баллах.